When you browse on this site, cookies collect data to enhance your experience and personalize the content and advertising you see.
Visit our Privacy Policy to learn more. By continuing to use the site, you agree to this use of cookies and data.
  • în România
  • Lista ţărilor
  • Pe 7 zile
  • Temperatura apei
  • Meteo pe hartă
  • Widget-uri
  • user-avatar
    Intrare

    Meteo pe oră la Diapaga

    Astăzi, 20 Septembrie, Vineri

    Timp Temperatura Precipitaţii Vânt Presiune Umiditate
    00:00 +26°C° 0 mm 2 m/s 736 mmHg 89%
    01:00 +26°C° 0.3 mm 2 m/s 736 mmHg 90%
    02:00 +25°C° 0.3 mm 3 m/s 735 mmHg 90%
    03:00 +25°C° 0.3 mm 4 m/s 735 mmHg 91%
    04:00 +25°C° 0.2 mm 3 m/s 735 mmHg 90%
    05:00 +25°C° 0.2 mm 3 m/s 736 mmHg 89%
    06:00 +25°C° 0.2 mm 3 m/s 736 mmHg 88%
    07:00 +25°C° 0 mm 3 m/s 736 mmHg 84%
    08:00 +26°C° 0 mm 3 m/s 736 mmHg 79%
    09:00 +27°C° 0 mm 4 m/s 736 mmHg 75%
    10:00 +27°C° 0 mm 3 m/s 736 mmHg 73%
    11:00 +28°C° 0 mm 2 m/s 735 mmHg 71%
    12:00 +28°C° 0 mm 2 m/s 735 mmHg 69%
    13:00 +29°C° 0 mm 1 m/s 734 mmHg 66%
    14:00 +30°C° 0 mm 1 m/s 734 mmHg 64%
    15:00 +30°C° 0 mm 1 m/s 733 mmHg 61%
    16:00 +30°C° 0 mm 1 m/s 734 mmHg 65%
    17:00 +29°C° 0 mm 1 m/s 734 mmHg 69%
    18:00 +28°C° 0 mm 1 m/s 734 mmHg 72%
    19:00 +27°C° 0 mm 1 m/s 735 mmHg 74%
    20:00 +27°C° 0 mm 1 m/s 735 mmHg 76%
    21:00 +26°C° 0 mm 1 m/s 736 mmHg 78%
    22:00 +26°C° 0 mm 1 m/s 736 mmHg 80%
    23:00 +26°C° 0 mm 2 m/s 736 mmHg 81%

    Mâine, 21 Septembrie, Sâmbătă

    Timp Temperatura Precipitaţii Vânt Presiune Umiditate
    00:00 +25°C° 0 mm 2 m/s 735 mmHg 83%
    01:00 +25°C° 0 mm 2 m/s 735 mmHg 85%
    02:00 +25°C° 0 mm 2 m/s 735 mmHg 86%
    03:00 +25°C° 0 mm 2 m/s 734 mmHg 87%
    04:00 +25°C° 0 mm 2 m/s 735 mmHg 85%
    05:00 +25°C° 0 mm 2 m/s 735 mmHg 83%
    06:00 +25°C° 0 mm 2 m/s 735 mmHg 81%
    07:00 +27°C° 0 mm 2 m/s 736 mmHg 75%
    08:00 +29°C° 0 mm 2 m/s 736 mmHg 69%
    09:00 +30°C° 0 mm 3 m/s 736 mmHg 64%
    10:00 +33°C° 0 mm 3 m/s 736 mmHg 59%
    11:00 +34°C° 0 mm 3 m/s 736 mmHg 55%
    12:00 +36°C° 0 mm 2 m/s 735 mmHg 50%
    13:00 +36°C° 0 mm 2 m/s 735 mmHg 49%
    14:00 +36°C° 0 mm 2 m/s 734 mmHg 48%
    15:00 +35°C° 0 mm 1 m/s 734 mmHg 47%
    16:00 +35°C° 0 mm 2 m/s 734 mmHg 53%
    17:00 +32°C° 0 mm 2 m/s 734 mmHg 58%
    18:00 +31°C° 0 mm 2 m/s 734 mmHg 64%
    19:00 +30°C° 0 mm 2 m/s 734 mmHg 66%
    20:00 +29°C° 0 mm 2 m/s 734 mmHg 68%
    21:00 +28°C° 0 mm 2 m/s 735 mmHg 71%
    22:00 +28°C° 0 mm 2 m/s 735 mmHg 74%
    23:00 +27°C° 0 mm 2 m/s 734 mmHg 78%

    Poimâine, 22 Septembrie, Duminică

    Timp Temperatura Precipitaţii Vânt Presiune Umiditate
    00:00 +27°C° 0 mm 2 m/s 734 mmHg 82%
    01:00 +27°C° 0 mm 3 m/s 734 mmHg 83%
    02:00 +26°C° 0 mm 3 m/s 734 mmHg 85%
    03:00 +26°C° 0 mm 3 m/s 733 mmHg 86%
    04:00 +26°C° 0 mm 3 m/s 734 mmHg 87%
    05:00 +26°C° 0 mm 3 m/s 734 mmHg 89%
    06:00 +25°C° 0 mm 2 m/s 734 mmHg 90%
    07:00 +27°C° 0 mm 3 m/s 735 mmHg 83%
    08:00 +29°C° 0 mm 3 m/s 735 mmHg 76%
    09:00 +32°C° 0 mm 4 m/s 735 mmHg 69%
    10:00 +34°C° 0 mm 4 m/s 735 mmHg 62%
    11:00 +35°C° 0 mm 3 m/s 735 mmHg 56%
    12:00 +37°C° 0 mm 3 m/s 734 mmHg 50%
    13:00 +38°C° 0 mm 2 m/s 734 mmHg 46%
    14:00 +38°C° 0 mm 2 m/s 733 mmHg 43%
    15:00 +39°C° 0 mm 1 m/s 733 mmHg 40%
    16:00 +36°C° 0 mm 1 m/s 733 mmHg 45%
    17:00 +35°C° 0 mm 2 m/s 733 mmHg 51%
    18:00 +32°C° 0 mm 2 m/s 732 mmHg 57%
    19:00 +31°C° 0 mm 2 m/s 733 mmHg 64%
    20:00 +30°C° 0 mm 3 m/s 733 mmHg 70%
    21:00 +30°C° 0 mm 3 m/s 734 mmHg 76%
    22:00 +29°C° 0 mm 3 m/s 734 mmHg 78%
    23:00 +29°C° 0 mm 3 m/s 734 mmHg 80%

    23 Septembrie, Luni

    Timp Temperatura Precipitaţii Vânt Presiune Umiditate
    00:00 +28°C° 0 mm 3 m/s 734 mmHg 83%
    01:00 +28°C° 0 mm 3 m/s 734 mmHg 84%
    02:00 +27°C° 0 mm 3 m/s 733 mmHg 85%
    03:00 +27°C° 0 mm 3 m/s 733 mmHg 86%
    04:00 +27°C° 0 mm 3 m/s 733 mmHg 86%
    05:00 +27°C° 0 mm 3 m/s 733 mmHg 87%
    06:00 +27°C° 0 mm 3 m/s 734 mmHg 88%
    07:00 +28°C° 0 mm 3 m/s 734 mmHg 81%
    08:00 +30°C° 0 mm 3 m/s 735 mmHg 73%
    09:00 +33°C° 0 mm 4 m/s 735 mmHg 66%
    10:00 +34°C° 0 mm 3 m/s 735 mmHg 61%
    11:00 +36°C° 0 mm 3 m/s 734 mmHg 56%
    12:00 +37°C° 0 mm 3 m/s 734 mmHg 51%
    13:00 +37°C° 0 mm 3 m/s 734 mmHg 49%
    14:00 +38°C° 0 mm 2 m/s 733 mmHg 47%
    15:00 +37°C° 0 mm 1 m/s 733 mmHg 45%
    16:00 +36°C° 0.1 mm 2 m/s 733 mmHg 54%
    17:00 +34°C° 0.1 mm 3 m/s 733 mmHg 62%
    18:00 +31°C° 0.1 mm 3 m/s 733 mmHg 70%
    19:00 +30°C° 0 mm 3 m/s 734 mmHg 72%
    20:00 +30°C° 0 mm 3 m/s 734 mmHg 75%
    21:00 +29°C° 0 mm 4 m/s 735 mmHg 77%
    22:00 +29°C° 0 mm 3 m/s 735 mmHg 80%
    23:00 +28°C° 0 mm 3 m/s 735 mmHg 82%

    24 Septembrie, Marţi

    Timp Temperatura Precipitaţii Vânt Presiune Umiditate
    00:00 +28°C° 0 mm 3 m/s 735 mmHg 85%
    01:00 +27°C° 0.3 mm 4 m/s 735 mmHg 85%
    02:00 +27°C° 0.3 mm 4 m/s 735 mmHg 85%
    03:00 +27°C° 0.3 mm 5 m/s 735 mmHg 85%
    04:00 +27°C° 0 mm 4 m/s 735 mmHg 84%
    05:00 +26°C° 0 mm 3 m/s 735 mmHg 84%
    06:00 +26°C° 0 mm 2 m/s 735 mmHg 83%
    07:00 +28°C° 0 mm 2 m/s 735 mmHg 74%
    08:00 +29°C° 0 mm 3 m/s 736 mmHg 66%
    09:00 +31°C° 0 mm 3 m/s 736 mmHg 57%
    10:00 +34°C° 0 mm 3 m/s 735 mmHg 51%
    11:00 +36°C° 0 mm 2 m/s 735 mmHg 45%
    12:00 +38°C° 0 mm 2 m/s 735 mmHg 38%
    13:00 +38°C° 0 mm 2 m/s 734 mmHg 38%
    14:00 +37°C° 0 mm 1 m/s 734 mmHg 37%
    15:00 +39°C° 0 mm 1 m/s 733 mmHg 36%
    16:00 +36°C° 0 mm 1 m/s 733 mmHg 41%
    17:00 +34°C° 0 mm 1 m/s 733 mmHg 46%
    18:00 +32°C° 0 mm 1 m/s 733 mmHg 52%
    19:00 +31°C° 0 mm 2 m/s 734 mmHg 59%
    20:00 +30°C° 0 mm 2 m/s 734 mmHg 66%
    21:00 +29°C° 0 mm 3 m/s 735 mmHg 73%
    22:00 +28°C° 0 mm 3 m/s 734 mmHg 74%
    23:00 +28°C° 0 mm 2 m/s 734 mmHg 75%

    25 Septembrie, Miercuri

    Timp Temperatura Precipitaţii Vânt Presiune Umiditate
    00:00 +28°C° 0 mm 2 m/s 734 mmHg 76%
    01:00 +27°C° 0.1 mm 2 m/s 734 mmHg 77%
    02:00 +27°C° 0.1 mm 3 m/s 734 mmHg 78%
    03:00 +27°C° 0.1 mm 3 m/s 734 mmHg 79%
    04:00 +26°C° 0 mm 3 m/s 734 mmHg 82%
    05:00 +26°C° 0 mm 4 m/s 734 mmHg 85%
    06:00 +26°C° 0 mm 4 m/s 735 mmHg 88%
    07:00 +27°C° 0 mm 4 m/s 735 mmHg 83%
    08:00 +29°C° 0 mm 5 m/s 735 mmHg 77%
    09:00 +30°C° 0 mm 5 m/s 736 mmHg 72%
    10:00 +33°C° 0 mm 5 m/s 735 mmHg 64%
    11:00 +35°C° 0 mm 4 m/s 735 mmHg 55%
    12:00 +36°C° 0 mm 4 m/s 734 mmHg 47%
    13:00 +37°C° 0 mm 3 m/s 734 mmHg 45%
    14:00 +37°C° 0 mm 3 m/s 733 mmHg 43%
    15:00 +38°C° 0 mm 2 m/s 733 mmHg 40%
    16:00 +36°C° 0 mm 2 m/s 733 mmHg 45%
    17:00 +35°C° 0 mm 2 m/s 733 mmHg 50%
    18:00 +32°C° 0 mm 2 m/s 733 mmHg 55%
    19:00 +31°C° 0 mm 2 m/s 733 mmHg 59%
    20:00 +30°C° 0 mm 2 m/s 733 mmHg 63%
    21:00 +29°C° 0 mm 3 m/s 734 mmHg 67%
    22:00 +29°C° 0 mm 3 m/s 734 mmHg 69%
    23:00 +28°C° 0 mm 3 m/s 734 mmHg 71%
    Arată mai mult